Vorticity
6 5 5 6 6 7 7 8 9 9 9 9 11 13 12 9 9 13 14 12 14 7 17 10 10 13 14 8 6 14 1 32 32 -27 13 -1 2 14 26 18 8 1 -16 -1 9
7 6 6 7 7 7 8 9 8 10 10 12 14 11 10 10 15 -1 35 13 24 26 22 28 14 11 14 14 1 8 12 21 -20 39 20 25 -5 3 1 26 12 2 4 -1 -3
6 6 5 7 7 7 8 9 10 11 11 13 12 13 11 10 6 7 7 7 -5 0 4 13 26 17 5 10 14 16 -6 57 34 -5 10 4 5 7 28 -18 4 7 3 -6 3
6 6 6 8 7 7 10 9 10 10 12 13 12 8 9 13 27 7 10 -1 11 0 6 14 30 4 2 4 20 -1 15 -18 47 14 5 12 -16 -4 2 22 18 -5 9 15 2
7 7 7 8 8 8 9 10 9 12 13 14 8 13 17 21 19 12 6 13 21 35 -4 2 32 12 -0 26 11 10 3 15 8 -31 12 -2 -1 -11 21 3 3 -11 18 5 5
7 7 9 7 7 8 10 8 12 13 13 10 17 22 15 21 9 15 12 10 11 27 38 -6 -3 25 6 8 8 4 33 3 4 13 17 -15 -11 33 28 8 12 6 11 3 7
7 8 8 7 9 10 10 11 14 16 17 17 20 9 18 2 5 2 -8 6 5 8 22 27 14 7 17 19 2 7 -2 36 -7 6 -5 16 7 -1 29 21 8 8 10 20 20
6 7 6 6 8 12 13 14 12 21 6 23 10 16 -1 4 -4 1 7 16 11 -1 10 5 44 21 10 6 23 1 -2 13 10 25 5 -7 20 12 13 23 -7 21 7 12 10
7 5 4 4 6 12 13 17 19 23 16 18 0 16 5 1 7 11 20 13 -2 24 -3 13 7 28 21 12 7 11 3 15 22 3 1 8 13 12 11 30 31 8 15 6 12
6 5 4 3 4 9 14 17 15 11 25 24 -4 16 7 12 11 5 5 3 18 25 9 6 -1 25 22 13 10 1 10 11 16 2 9 8 2 -0 11 29 -8 -5 9 9 19
3 6 1 4 2 8 16 16 19 12 36 7 5 15 9 6 20 9 5 7 3 11 11 6 28 -2 12 31 7 -7 -10 -8 23 19 21 2 7 -1 -11 30 25 -2 11 4 5
4 5 3 5 4 8 16 19 16 10 33 -6 4 2 10 11 19 -12 8 15 18 12 10 10 10 13 9 27 4 14 -9 9 7 -1 3 11 14 8 1 -17 54 -6 -15 3 6
4 4 2 6 7 12 15 20 10 17 8 2 -1 2 7 14 13 -18 15 8 20 15 14 9 0 -21 14 7 12 20 16 -1 -4 5 10 14 28 15 8 12 7 39 -5 19 44
5 8 3 9 13 11 20 19 10 28 -3 4 2 -11 33 17 -33 10 5 17 17 9 11 18 19 21 6 -1 16 -3 34 22 -5 -22 18 3 14 32 14 9 7 10 34 -12 -61
4 8 3 9 14 11 23 10 27 30 3 25 -11 18 1 -3 16 3 8 4 16 10 15 10 1 17 11 7 22 12 -6 15 17 18 -14 35 -14 53 21 7 6 5 15 33 38
8 4 3 5 15 15 19 20 29 17 -16 15 21 2 11 17 2 8 26 26 -10 24 0 16 12 15 9 26 6 15 12 -7 21 29 20 42 -28 36 17 7 8 5 21 7 33
9 2 4 5 11 25 15 23 10 9 -4 -10 16 10 -10 9 13 21 13 6 12 29 29 23 20 26 35 10 4 8 20 13 9 6 9 6 27 -45 53 17 10 24 20 14 44
9 5 5 7 20 18 25 29 15 -14 -2 16 8 12 2 17 -3 31 10 -8 -3 -0 47 12 6 21 29 2 22 2 -5 -4 8 8 12 5 10 7 -4 16 14 9 38 -13 8
6 4 13 19 15 19 26 13 -3 5 5 5 23 1 2 2 30 33 11 -5 1 0 33 27 6 13 2 9 -0 38 -3 -0 8 11 -0 8 31 -28 46 15 24 3 23 4 9
4 3 18 26 12 22 21 11 8 5 10 10 17 4 6 -3 4 21 8 -15 8 -8 10 1 16 6 27 16 22 4 2 10 3 8 9 32 17 -28 4 4 21 11 3 15 5
4 11 13 27 23 24 16 8 11 3 3 15 0 9 3 5 16 11 4 23 -4 -4 41 32 10 -29 68 19 14 -0 24 -4 12 5 6 14 2 24 11 15 12 7 7 39 6
4 27 20 22 23 17 11 6 6 9 10 11 24 1 3 0 13 1 5 19 -3 -7 22 -6 20 -4 11 29 19 16 3 -28 -7 14 9 -1 4 24 30 20 6 0 14 8 30
4 28 19 6 25 16 19 11 10 8 16 -2 22 5 0 -0 28 -12 -14 20 -17 30 6 3 -11 13 13 13 10 17 11 -6 -9 10 1 13 7 16 15 27 23 4 7 14 14
15 20 13 4 14 13 13 5 8 18 21 18 11 5 -3 7 4 -5 27 -16 3 23 12 14 5 14 -14 -18 -16 7 19 8 -13 13 4 19 2 21 26 8 19 12 13 20 9
14 11 13 5 14 13 6 10 1 8 21 3 6 -1 5 10 13 22 2 13 18 -5 -1 22 9 -2 13 43 37 19 22 15 30 -16 18 16 4 4 11 18 10 9 7 -0 11
28 29 21 13 13 7 7 3 9 9 22 7 7 9 2 21 11 0 5 5 20 22 20 10 -11 -0 36 18 37 20 35 22 5 26 39 13 -0 5 13 13 18 16 19 18 7
23 23 15 9 8 12 1 12 5 7 13 7 6 8 15 12 15 20 20 17 17 16 5 7 8 14 2 8 21 -7 11 26 8 9 8 -1 16 4 8 13 13 22 10 12 13
Height
3113 3109 3103 3098 3092 3087 3080 3073 3066 3059 3052 3046 3040 3034 3029 3025 3022 3018 3017 3015 3013 3012 3012 3016 3020 3027 3029 3032 3038 3044 3046 3044 3049 3054 3058 3067 3072 3075 3081 3085 3088 3091 3099 3105 3107
3111 3106 3101 3095 3089 3082 3074 3067 3060 3054 3047 3040 3034 3028 3023 3019 3016 3012 3010 3009 3008 3008 3008 3010 3015 3021 3023 3028 3033 3035 3036 3037 3046 3053 3057 3064 3067 3072 3076 3080 3083 3088 3094 3101 3103
3107 3102 3097 3090 3083 3076 3070 3062 3055 3048 3042 3035 3028 3023 3019 3014 3012 3010 3007 3006 3007 3007 3005 3005 3010 3015 3018 3024 3028 3030 3029 3036 3041 3049 3056 3060 3062 3065 3070 3074 3079 3084 3087 3094 3099
3103 3099 3094 3088 3081 3072 3065 3057 3050 3043 3036 3029 3023 3018 3013 3010 3011 3006 3003 3003 3002 3002 3003 3003 3007 3011 3014 3018 3023 3024 3027 3034 3038 3043 3049 3052 3055 3057 3064 3072 3077 3082 3087 3091 3095
3101 3096 3091 3085 3077 3069 3061 3053 3045 3038 3031 3024 3019 3014 3010 3007 3006 3005 3002 3000 2999 2998 3000 3001 3004 3008 3009 3013 3019 3019 3024 3030 3033 3036 3040 3040 3049 3053 3059 3067 3068 3073 3080 3088 3093
3098 3093 3087 3082 3075 3066 3056 3048 3042 3034 3027 3021 3015 3010 3008 3008 3006 3002 3001 2999 2997 2995 2995 2998 3000 3002 3005 3009 3015 3017 3021 3025 3030 3032 3033 3038 3044 3048 3054 3058 3064 3068 3076 3083 3089
3096 3090 3085 3078 3071 3062 3054 3045 3038 3030 3024 3018 3013 3009 3008 3008 3004 3003 3001 2998 2996 2994 2992 2993 2996 3000 3001 3008 3010 3014 3017 3021 3025 3030 3031 3038 3035 3036 3046 3048 3057 3063 3073 3078 3083
3095 3089 3082 3074 3067 3058 3050 3041 3033 3027 3021 3015 3011 3008 3007 3005 3005 3002 2999 2998 2996 2994 2992 2991 2993 2995 2998 3004 3008 3012 3015 3016 3019 3026 3032 3034 3029 3037 3047 3046 3052 3061 3068 3072 3077
3093 3086 3079 3071 3062 3054 3045 3037 3030 3024 3018 3013 3012 3007 3005 3005 3004 3001 2998 2997 2995 2993 2992 2990 2991 2993 2997 3001 3007 3010 3010 3012 3018 3023 3029 3031 3028 3032 3040 3044 3048 3054 3060 3068 3073
3091 3084 3076 3069 3059 3050 3041 3034 3027 3022 3015 3013 3012 3010 3007 3005 3001 2999 2997 2995 2993 2992 2991 2991 2991 2991 2993 2998 2999 3003 3007 3010 3012 3018 3022 3025 3027 3031 3035 3039 3043 3049 3057 3060 3067
3090 3083 3075 3066 3057 3047 3038 3028 3025 3018 3011 3013 3012 3008 3005 3004 3002 2999 2997 2995 2993 2992 2991 2990 2990 2991 2991 2994 2999 3003 3005 3005 3011 3016 3019 3020 3025 3030 3034 3037 3042 3045 3052 3055 3059
3088 3081 3073 3065 3055 3043 3034 3025 3019 3016 3014 3013 3012 3008 3006 3004 3001 2999 2996 2994 2991 2990 2990 2990 2987 2990 2990 2991 2996 3000 3002 3003 3007 3012 3016 3019 3020 3025 3030 3035 3037 3039 3045 3052 3058
3086 3079 3072 3062 3053 3044 3032 3024 3019 3016 3015 3014 3011 3008 3006 3004 3001 2998 2997 2993 2990 2988 2988 2988 2988 2989 2989 2990 2994 2996 2999 3002 3006 3008 3011 3016 3018 3020 3023 3029 3034 3034 3037 3047 3047
3085 3076 3067 3060 3052 3041 3033 3024 3019 3015 3015 3017 3013 3010 3008 3004 3002 2999 2996 2993 2990 2988 2987 2986 2986 2986 2989 2990 2992 2994 2996 3001 3004 3009 3010 3013 3014 3015 3019 3023 3027 3032 3033 3041 3043
3083 3074 3065 3053 3046 3038 3030 3021 3018 3017 3021 3019 3015 3012 3009 3006 3005 3000 2994 2991 2990 2989 2989 2987 2985 2985 2986 2989 2991 2993 2997 3000 3003 3006 3009 3008 3013 3006 3012 3015 3018 3025 3027 3034 3039
3080 3072 3064 3056 3047 3036 3026 3022 3019 3019 3021 3020 3017 3012 3008 3005 3004 3001 2995 2993 2990 2987 2986 2983 2983 2983 2984 2986 2989 2991 2995 3000 3002 3005 3004 3000 3006 3003 3002 3001 3014 3022 3027 3031 3036
3078 3070 3061 3052 3043 3034 3027 3023 3021 3021 3026 3022 3016 3013 3010 3005 3003 3000 2996 2993 2991 2987 2983 2980 2980 2980 2982 2985 2987 2990 2993 2999 3002 3001 2999 3001 3004 2998 3000 3005 3012 3016 3023 3028 3032
3075 3068 3060 3050 3038 3032 3027 3024 3022 3027 3025 3022 3017 3014 3011 3007 3004 3001 2998 2997 2994 2992 2988 2985 2981 2981 2982 2983 2986 2988 2992 2993 2997 3003 2997 3001 3000 2998 3002 3003 3008 3014 3020 3024 3027
3072 3065 3057 3047 3037 3031 3028 3025 3029 3028 3026 3021 3017 3013 3012 3009 3007 3001 2999 2999 2997 2994 2995 2989 2983 2980 2980 2982 2987 2987 2989 2992 2993 2993 2992 2994 2996 3001 2998 3000 3002 3009 3012 3018 3025
3069 3061 3051 3042 3035 3030 3028 3028 3029 3028 3025 3022 3019 3017 3014 3010 3006 3003 3001 3001 2999 2998 2997 2993 2985 2980 2979 2981 2984 2984 2990 2993 2993 3000 2997 2993 2993 2999 3000 3001 3003 3007 3010 3014 3023
3066 3058 3050 3041 3035 3031 3028 3029 3028 3027 3025 3023 3020 3018 3016 3012 3009 3006 3005 3003 2998 2996 2993 2990 2989 2981 2978 2979 2980 2983 2985 2989 2990 2993 2995 2995 2996 2995 2997 3001 3004 3006 3010 3013 3020
3063 3056 3047 3038 3036 3029 3030 3030 3029 3026 3025 3024 3021 3018 3015 3012 3008 3006 3005 3004 3000 2997 2992 2990 2987 2980 2975 2975 2979 2982 2985 2989 2989 2991 2990 2992 2996 2993 2995 2998 3002 3006 3010 3013 3020
3057 3049 3042 3037 3034 3032 3031 3031 3029 3025 3023 3021 3020 3018 3014 3012 3009 3005 3003 3002 2999 2995 2992 2991 2988 2982 2975 2977 2980 2982 2985 2988 2990 2990 2992 2994 2998 2994 2994 2998 3002 3005 3009 3015 3019
3055 3048 3040 3035 3034 3032 3031 3029 3027 3025 3023 3021 3018 3016 3013 3010 3008 3003 3000 2998 2996 2994 2992 2991 2987 2986 2985 2981 2981 2981 2983 2987 2989 2991 2991 2995 2995 2992 2995 2999 3002 3004 3009 3013 3018
3053 3046 3039 3039 3036 3033 3032 3029 3026 3022 3021 3020 3018 3015 3012 3007 3002 3000 2998 2995 2995 2992 2991 2989 2985 2983 2979 2973 2972 2975 2980 2984 2987 2989 2990 2993 2992 2991 2994 2998 3001 3003 3007 3012 3016
3052 3046 3040 3038 3036 3035 3032 3028 3025 3022 3020 3017 3015 3011 3009 3005 3003 2996 2996 2995 2992 2991 2988 2987 2985 2981 2974 2971 2968 2973 2979 2983 2987 2988 2992 2994 2993 2994 2996 2997 3000 3004 3006 3009 3013
3046 3042 3039 3037 3035 3033 3031 3028 3025 3021 3019 3014 3010 3007 3005 3002 2998 2995 2994 2993 2992 2990 2988 2986 2984 2982 2974 2972 2972 2976 2979 2982 2985 2986 2989 2991 2993 2993 2996 2997 2998 3002 3006 3008 3011